Tracking 35237 objects as of 5-Sep-2026
HD Live streaming from Space Station
objects crossing your sky now

STARLINK-34273

Track STARLINK-34273 now!
10-day predictions
STARLINK-34273 is classified as:


NORAD ID: 64905
Int'l Code: 2025-157B
Launch date: July 26, 2025
Source: United States (US)
Launch site: AIR FORCE EASTERN TEST RANGE (AFETR)
Your satellite tracking list
Your tracking list is empty




NASA's NSSDC Master Catalog

Two Line Element Set (TLE):
1 64905U 25157B   26248.29854130  .00012574  00000-0  38263-3 0  9992
2 64905  53.1564 228.5034 0001156  92.1032 268.0103 15.34402599 63678
Source of the keplerian elements: AFSPC